Weather History for Petaluma, CA

Change the Weather History Date:

Wednesday, January 15, 2014

  Actual Average (KAPC) Record (KAPC)
Temperature  
Mean Temperature 49 °F 46 °F  
Max Temperature 66 °F 55 °F 70 °F (2014)
Min Temperature 32 °F 37 °F 18 °F (2007)
Degree Days  
Heating Degree Days 16    
Month to date heating degree days  
Since 1 July heating degree days  
Cooling Degree Days 0    
Month to date cooling degree days  
Year to date cooling degree days  
Moisture  
Dew Point 33 °F    
Average Humidity 63    
Maximum Humidity 100    
Minimum Humidity 28    
Precipitation  
Precipitation 0.00 in - 1.00 in (1978)
Month to date precipitation  
Year to date precipitation  
Since 1 July precipitation  
Sea Level Pressure  
Sea Level Pressure 30.30 in    
Wind  
Wind Speed 3 mph (SE)    
Max Wind Speed 12 mph    
Max Gust Speed 17 mph    
Visibility 10 miles    
Events      
T = Trace of Precipitation, MM = Missing Value Source: NWS Daily Summary

Daily Weather History Graph

Daily Weather History Graph

Search for Another Location

Airport:

Trip Planner

Search our weather history database for the weather conditions in past years. The results will help you decide how hot, cold, wet, or windy it might be!

Date:

Astronomy

Jan. 15, 2014 Rise Set
Actual Time 7:25 AM PST 5:14 PM PST
Civil Twilight 6:56 AM PST 5:43 PM PST
Nautical Twilight 6:24 AM PST 6:15 PM PST
Astronomical Twilight 5:52 AM PST 6:47 PM PST
Moon 5:16 PM PST (1/15) 6:46 AM PST (1/15)
Length of Visible Light 10h 46m
Length of Day
9h 48m
Full, 100% of the Moon is Illuminated
Jan 15
Full
Jan 15
Full
Jan 23
Last Quarter
Jan 30
New
Feb 6
First Quarter

Hourly Weather History & Observations

Time (PST) Temp. Windchill Dew Point Humidity Pressure Visibility Wind Dir Wind Speed Gust Speed Precip Events Conditions
12:15 AM 33.8 °F - 32.0 °F 93% 30.35 in 10.0 mi Calm Calm - N/A   Clear
12:35 AM 32.0 °F - 32.0 °F 100% 30.35 in 10.0 mi Calm Calm - N/A   Clear
12:55 AM 32.0 °F - 32.0 °F 100% 30.34 in 10.0 mi Calm Calm - N/A   Partly Cloudy
1:00 AM 33.8 °F - 32.0 °F 93% 30.34 in 10.0 mi Calm Calm - N/A   Partly Cloudy
1:35 AM 32.0 °F - 32.0 °F 100% 30.35 in 10.0 mi Calm Calm - N/A   Clear
1:55 AM 33.8 °F 30.8 °F 32.0 °F 93% 30.35 in 10.0 mi SW 3.5 mph - N/A   Clear
2:15 AM 32.0 °F - 32.0 °F 100% 30.35 in 10.0 mi Calm Calm - N/A   Partly Cloudy
2:35 AM 32.0 °F 27.5 °F 32.0 °F 100% 30.35 in 10.0 mi East 4.6 mph - N/A   Partly Cloudy
2:55 AM 35.6 °F - 32.0 °F 87% 30.35 in 10.0 mi Calm Calm - N/A   Clear
3:15 AM 33.8 °F - 32.0 °F 93% 30.35 in 10.0 mi Calm Calm - N/A   Clear
3:35 AM 32.0 °F - 32.0 °F 100% 30.34 in 10.0 mi Calm Calm - N/A   Clear
3:55 AM 35.6 °F - 32.0 °F 87% 30.34 in 10.0 mi Calm Calm - N/A   Clear
4:15 AM 39.2 °F - 32.0 °F 75% 30.35 in 10.0 mi Calm Calm - N/A   Clear
4:35 AM 35.6 °F 32.8 °F 32.0 °F 87% 30.34 in 10.0 mi East 3.5 mph - N/A   Clear
4:55 AM 39.2 °F - 32.0 °F 75% 30.35 in 10.0 mi Calm Calm - N/A   Partly Cloudy
5:15 AM 39.2 °F 35.9 °F 32.0 °F 75% 30.35 in 10.0 mi East 4.6 mph - N/A   Partly Cloudy
5:35 AM 41.0 °F 39.0 °F 32.0 °F 70% 30.34 in 10.0 mi East 3.5 mph - N/A   Clear
5:55 AM 42.8 °F 39.3 °F 32.0 °F 66% 30.34 in 10.0 mi East 5.8 mph - N/A   Partly Cloudy
6:15 AM 41.0 °F 37.1 °F 32.0 °F 70% 30.34 in 10.0 mi ENE 5.8 mph - N/A   Partly Cloudy
6:35 AM 37.4 °F - 32.0 °F 81% 30.35 in 10.0 mi Calm Calm - N/A   Clear
6:55 AM 35.6 °F - 32.0 °F 87% 30.35 in 10.0 mi Calm Calm - N/A   Clear
7:15 AM 37.4 °F - 32.0 °F 81% 30.35 in 10.0 mi Calm Calm - N/A   Clear
7:35 AM 39.2 °F - 32.0 °F 75% 30.36 in 10.0 mi Calm Calm - N/A   Clear
7:55 AM 39.2 °F - 32.0 °F 75% 30.36 in 10.0 mi Calm Calm - N/A   Clear
8:15 AM 44.6 °F 42.2 °F 33.8 °F 66% 30.36 in 10.0 mi ESE 4.6 mph - N/A   Clear
8:35 AM 46.4 °F 45.2 °F 35.6 °F 66% 30.37 in 10.0 mi SSE 3.5 mph - N/A   Clear
8:55 AM 46.4 °F - 37.4 °F 71% 30.37 in 10.0 mi Calm Calm - N/A   Clear
9:15 AM 50.0 °F - 37.4 °F 62% 30.37 in 10.0 mi SE 4.6 mph - N/A   Clear
9:35 AM 51.8 °F - 37.4 °F 58% 30.37 in 9.0 mi SE 5.8 mph - N/A   Clear
9:55 AM 55.4 °F - 37.4 °F 51% 30.37 in 10.0 mi SE 8.1 mph - N/A   Clear
10:15 AM 55.4 °F - 37.4 °F 51% 30.37 in 10.0 mi SE 10.4 mph 16.1 mph N/A   Clear
10:35 AM 55.4 °F - 37.4 °F 51% 30.36 in 10.0 mi SE 6.9 mph - N/A   Clear
10:55 AM 57.2 °F - 37.4 °F 48% 30.36 in 10.0 mi SE 6.9 mph - N/A   Clear
11:15 AM 59.0 °F - 37.4 °F 45% 30.35 in 10.0 mi South 9.2 mph - N/A   Clear
11:35 AM 59.0 °F - 35.6 °F 42% 30.34 in 10.0 mi SSE 9.2 mph - N/A   Clear
11:55 AM 60.8 °F - 35.6 °F 39% 30.33 in 10.0 mi SSE 10.4 mph - N/A   Clear
12:15 PM 62.6 °F - 35.6 °F 37% 30.31 in 10.0 mi SSE 10.4 mph 17.3 mph N/A   Clear
12:35 PM 64.4 °F - 33.8 °F 32% 30.30 in 10.0 mi SSE 9.2 mph - N/A   Clear
12:55 PM 64.4 °F - 35.6 °F 34% 30.29 in 10.0 mi SSE 10.4 mph - N/A   Clear
1:15 PM 66.2 °F - 35.6 °F 32% 30.28 in 10.0 mi SSE 9.2 mph - N/A   Clear
1:35 PM 66.2 °F - 35.6 °F 32% 30.27 in 10.0 mi SSE 11.5 mph - N/A   Clear
1:55 PM 66.2 °F - 35.6 °F 32% 30.27 in 10.0 mi SSE 10.4 mph - N/A   Clear
2:15 PM 66.2 °F - 32.0 °F 28% 30.27 in 10.0 mi SSE 11.5 mph - N/A   Clear
2:35 PM 66.2 °F - 32.0 °F 28% 30.26 in 10.0 mi SSE 10.4 mph - N/A   Clear
2:55 PM 66.2 °F - 32.0 °F 28% 30.26 in 10.0 mi SSE 10.4 mph - N/A   Clear
3:15 PM 66.2 °F - 32.0 °F 28% 30.26 in 10.0 mi SSE 10.4 mph - N/A   Clear
3:35 PM 66.2 °F - 32.0 °F 28% 30.25 in 10.0 mi SSE 8.1 mph - N/A   Clear
3:55 PM 66.2 °F - 32.0 °F 28% 30.25 in 10.0 mi SSE 6.9 mph - N/A   Clear
4:15 PM 66.2 °F - 33.8 °F 30% 30.24 in 10.0 mi SE 3.5 mph - N/A   Clear
4:35 PM 64.4 °F - 35.6 °F 34% 30.24 in 10.0 mi SE 3.5 mph - N/A   Clear
4:55 PM 62.6 °F - 33.8 °F 34% 30.24 in 10.0 mi Calm Calm - N/A   Clear
5:15 PM 59.0 °F - 35.6 °F 42% 30.24 in 10.0 mi Calm Calm - N/A   Clear
5:35 PM 55.4 °F - 32.0 °F 41% 30.24 in 10.0 mi Calm Calm - N/A   Clear
5:55 PM 51.8 °F - 32.0 °F 47% 30.24 in 10.0 mi NE 3.5 mph - N/A   Clear
6:15 PM 50.0 °F - 33.8 °F 54% 30.23 in 10.0 mi NNE 4.6 mph - N/A   Clear
6:35 PM 48.2 °F - 32.0 °F 54% 30.23 in 10.0 mi Calm Calm - N/A   Clear
6:55 PM 48.2 °F - 32.0 °F 54% 30.23 in 10.0 mi Calm Calm - N/A   Clear
7:15 PM 46.4 °F - 32.0 °F 57% 30.23 in 10.0 mi Calm Calm - N/A   Clear
7:35 PM 42.8 °F - 32.0 °F 66% 30.23 in 10.0 mi Calm Calm - N/A   Clear
7:55 PM 42.8 °F - 32.0 °F 66% 30.23 in 10.0 mi Calm Calm - N/A   Clear
8:15 PM 44.6 °F - 32.0 °F 61% 30.23 in 10.0 mi Calm Calm - N/A   Clear
8:35 PM 42.8 °F - 32.0 °F 66% 30.23 in 10.0 mi Calm Calm - N/A   Clear
8:55 PM 41.0 °F - 32.0 °F 70% 30.24 in 10.0 mi Calm Calm - N/A   Clear
9:15 PM 41.0 °F - 32.0 °F 70% 30.24 in 10.0 mi Calm Calm - N/A   Clear
9:35 PM 41.0 °F - 32.0 °F 70% 30.24 in 10.0 mi Calm Calm - N/A   Partly Cloudy
9:55 PM 39.2 °F - 32.0 °F 75% 30.24 in 10.0 mi Calm Calm - N/A   Partly Cloudy
10:15 PM 39.2 °F - 32.0 °F 75% 30.24 in 10.0 mi Calm Calm - N/A   Clear
10:35 PM 39.2 °F - 32.0 °F 75% 30.24 in 10.0 mi Calm Calm - N/A   Partly Cloudy
10:55 PM 37.4 °F - 32.0 °F 81% 30.24 in 10.0 mi Calm Calm - N/A   Clear
11:15 PM 37.4 °F - 32.0 °F 81% 30.24 in 10.0 mi Calm Calm - N/A   Clear
11:35 PM 37.4 °F 34.9 °F 32.0 °F 81% 30.24 in 10.0 mi West 3.5 mph - N/A   Partly Cloudy
11:55 PM 35.6 °F - 32.0 °F 87% 30.24 in 10.0 mi Calm Calm - N/A   Clear